DW6417 Weather Reports


time (UTC)temp
C
wind
direction
speed
KPH
gust
KPH
rain 1hr
cm
rain 24hr
cm
rain mn
cm
humidity
%
barometer
mb
20260507002624 8 342 1.6 4.8 0.00 1.19 0.00 89 1010.5
20260507001917 8 341 1.6 4.8 0.00 1.27 0.00 90 1010.4
20260507001624 8 342 1.6 4.8 0.00 1.19 0.00 90 1010.4
20260507001416 8 341 3.2 6.4 0.00 1.27 0.00 90 1010.4
20260507000916 8 341 1.6 6.4 0.00 1.27 0.00 90 1010.4
20260507000625 8 341 1.6 4.8 0.00 1.19 0.00 90 1010.4
20260506235916 8 342 1.6 4.8 0.00 1.27 0.00 90 1010.3
20260506235624 8 342 1.6 4.8 0.00 1.30 0.00 90 1010.4
20260506234916 8 342 1.6 4.8 0.00 1.30 0.00 90 1010.4
20260506234624 8 342 0.0 3.2 0.00 1.30 0.00 90 1010.4
20260506233916 8 341 1.6 6.4 0.00 1.30 0.00 90 1010.4
20260506232916 8 341 1.6 4.8 0.00 1.32 0.00 90 1010.3
20260506232624 8 342 1.6 3.2 0.00 1.30 0.00 90 1010.4
20260506232416 8 341 1.6 4.8 0.00 1.32 0.00 90 1010.3
20260506231916 8 341 3.2 4.8 0.00 1.32 0.00 90 1010.3
20260506231624 8 342 1.6 4.8 0.00 1.30 0.00 90 1010.3
20260506231416 8 341 3.2 6.4 0.00 1.32 0.00 90 1010.2
20260506230916 8 341 1.6 6.4 0.00 1.32 0.00 90 1010.3
20260506230624 8 342 1.6 6.4 0.00 1.30 0.00 90 1010.3
20260506230417 8 341 1.6 6.4 0.00 1.32 0.00 90 1010.2
20260506225916 7 340 1.6 6.4 0.00 1.32 0.00 90 1010.2
20260506225624 7 341 1.6 6.4 0.00 1.32 0.00 91 1010.2
20260506225417 7 340 1.6 6.4 0.00 1.32 0.00 91 1010.2
20260506224916 7 2 3.2 9.7 0.00 1.32 0.00 91 1010.1
20260506224624 7 341 3.2 9.7 0.00 1.32 0.00 91 1010.2
20260506224416 7 21 3.2 9.7 0.00 1.32 0.00 91 1010.2
20260506223416 7 40 1.6 4.8 0.00 1.35 0.00 91 1010.1
20260506222916 7 40 1.6 4.8 0.00 1.35 0.00 91 1010.0
20260506222624 7 39 0.0 4.8 0.00 1.32 0.00 91 1010.0
20260506222416 7 40 1.6 6.4 0.00 1.35 0.00 91 1010.0
20260506221916 7 0 0.0 6.4 0.00 1.35 0.00 91 1010.0
20260506221624 7 39 0.0 0.0 0.00 1.32 0.00 90 1010.0
20260506221416 7 0 0.0 0.0 0.00 1.35 0.00 90 1010.0
20260506220916 7 0 0.0 0.0 0.00 1.37 0.00 90 1010.0
20260506220624 7 39 0.0 0.0 0.00 1.32 0.00 90 1010.0
20260506215416 7 0 0.0 0.0 0.00 1.37 1.37 89 1009.8
20260506214916 7 0 0.0 0.0 0.00 1.37 1.37 89 1009.8
20260506214416 7 0 0.0 0.0 0.00 1.37 1.37 89 1009.8
20260506213624 7 39 0.0 0.0 0.00 1.37 1.37 89 1009.8
20260506213417 7 0 0.0 0.0 0.00 1.37 1.37 89 1009.8
20260506212625 7 39 0.0 0.0 0.00 1.37 1.37 89 1009.9
20260506212416 7 0 0.0 0.0 0.00 1.37 1.37 89 1009.8
20260506211916 7 39 1.6 3.2 0.00 1.37 1.37 89 1009.8
20260506211416 8 40 1.6 4.8 0.00 1.37 1.37 89 1009.8
20260506210626 8 39 1.6 4.8 0.00 1.37 1.37 89 1009.7
20260506210417 8 40 1.6 4.8 0.00 1.37 1.37 89 1009.7
20260506205416 8 40 1.6 4.8 0.00 1.37 1.37 88 1009.7
20260506204916 8 39 1.6 3.2 0.00 1.37 1.37 88 1009.7
20260506204624 8 39 1.6 3.2 0.00 1.37 1.37 88 1009.7
20260506203916 8 40 1.6 4.8 0.00 1.37 1.37 88 1009.7
20260506203624 8 39 1.6 4.8 0.00 1.37 1.37 89 1009.7
20260506202916 8 40 1.6 6.4 0.00 1.37 1.37 89 1009.7
20260506202624 8 39 1.6 6.4 0.00 1.37 1.37 89 1009.7
20260506202416 8 40 1.6 6.4 0.00 1.37 1.37 89 1009.7
20260506201916 8 40 1.6 4.8 0.00 1.37 1.37 89 1009.7
20260506201624 8 39 1.6 4.8 0.00 1.37 1.37 89 1009.7
20260506201416 8 40 1.6 4.8 0.00 1.37 1.37 89 1009.6
20260506200916 8 40 1.6 6.4 0.00 1.37 1.37 89 1009.6
20260506200624 8 39 1.6 6.4 0.00 1.37 1.37 89 1009.6
20260506200416 8 40 1.6 6.4 0.00 1.40 1.37 89 1009.6
20260506195624 8 39 1.6 6.4 0.00 1.40 1.37 89 1009.5
20260506195416 8 40 1.6 6.4 0.00 1.40 1.37 89 1009.5
20260506194917 8 40 1.6 4.8 0.00 1.40 1.37 89 1009.5
20260506194624 8 39 1.6 3.2 0.00 1.40 1.37 89 1009.4
20260506194417 8 40 1.6 6.4 0.00 1.42 1.37 89 1009.4
20260506193916 8 40 1.6 6.4 0.00 1.42 1.37 90 1009.4
20260506193624 8 39 1.6 6.4 0.00 1.40 1.37 90 1009.3
20260506193416 8 40 1.6 6.4 0.00 1.42 1.37 90 1009.3
20260506192916 8 40 1.6 6.4 0.00 1.45 1.37 90 1009.2
20260506192624 8 39 0.0 3.2 0.00 1.40 1.37 90 1009.3
20260506192416 8 40 1.6 3.2 0.00 1.45 1.37 90 1009.3
20260506191916 8 40 1.6 4.8 0.00 1.45 1.37 90 1009.1
20260506191625 8 39 1.6 4.8 0.00 1.40 1.37 90 1009.0
20260506190916 8 45 1.6 6.4 0.00 1.45 1.37 90 1009.0
20260506190624 8 39 1.6 6.4 0.00 1.40 1.37 90 1009.0
20260506185916 8 49 1.6 4.8 0.00 1.45 1.37 90 1008.9
20260506185624 8 49 0.0 1.6 0.00 1.45 1.37 90 1008.8
20260506185417 8 0 0.0 4.8 0.00 1.45 1.37 90 1008.8
20260506184916 8 50 1.6 4.8 0.00 1.45 1.37 90 1008.7
20260506184624 8 49 1.6 4.8 0.00 1.45 1.37 90 1008.6
20260506184416 8 50 1.6 4.8 0.00 1.45 1.37 90 1008.6
20260506183917 8 49 1.6 4.8 0.00 1.45 1.37 90 1008.6
20260506183624 8 49 1.6 3.2 0.00 1.45 1.37 90 1008.5
20260506183417 8 19 1.6 3.2 0.00 1.45 1.37 90 1008.5
20260506182916 8 355 1.6 4.8 0.00 1.45 1.37 90 1008.5
20260506182625 9 355 1.6 4.8 0.00 1.45 1.37 90 1008.4
20260506181916 9 354 1.6 4.8 0.00 1.45 1.37 90 1008.4
20260506181624 9 355 1.6 4.8 0.00 1.45 1.37 90 1008.3
20260506181416 9 355 1.6 4.8 0.00 1.45 1.37 90 1008.4
20260506180626 9 355 3.2 8.0 0.00 1.45 1.37 90 1008.2
20260506180416 9 354 3.2 8.0 0.00 1.45 1.37 90 1008.2
20260506175916 9 354 3.2 8.0 0.00 1.45 1.37 89 1008.1
20260506175624 9 355 3.2 8.0 0.00 1.45 1.37 89 1008.1
20260506175416 9 12 3.2 9.7 0.00 1.45 1.37 89 1008.1
20260506174916 9 5 3.2 9.7 0.00 1.45 1.37 89 1008.0
20260506174624 9 346 3.2 8.0 0.00 1.45 1.37 89 1008.1
20260506174416 9 344 3.2 8.0 0.00 1.45 1.37 89 1008.0
20260506173916 9 341 3.2 8.0 0.00 1.45 1.37 89 1007.9
20260506173624 9 340 1.6 8.0 0.00 1.45 1.37 89 1007.9
20260506173416 9 338 1.6 8.0 0.00 1.45 1.37 89 1007.8
20260506172916 9 336 3.2 8.0 0.00 1.45 1.37 89 1007.8
20260506172624 9 338 4.8 12.9 0.00 1.45 1.37 89 1007.8
20260506171917 9 347 3.2 9.7 0.00 1.45 1.37 89 1007.7
20260506171624 9 1 3.2 9.7 0.00 1.45 1.37 88 1007.7
20260506170916 9 358 3.2 8.0 0.00 1.45 1.37 88 1007.7
20260506170624 9 357 3.2 6.4 0.00 1.45 1.37 88 1007.7
20260506170416 9 357 3.2 6.4 0.00 1.45 1.37 88 1007.7
20260506165916 9 356 3.2 6.4 0.00 1.45 1.37 88 1007.7
20260506165624 9 357 3.2 6.4 0.00 1.45 1.37 88 1007.7
20260506164916 9 355 3.2 6.4 0.00 1.45 1.37 88 1007.6
20260506164624 9 356 3.2 6.4 0.00 1.45 1.37 88 1007.6
20260506164416 9 353 3.2 8.0 0.00 1.45 1.37 88 1007.6
20260506163916 9 352 3.2 8.0 0.00 1.45 1.37 88 1007.5
20260506163624 9 352 3.2 8.0 0.00 1.45 1.37 88 1007.6
20260506163416 9 353 3.2 12.9 0.00 1.45 1.37 88 1007.5
20260506162916 9 356 1.6 12.9 0.00 1.45 1.37 88 1007.5
20260506162624 9 358 1.6 3.2 0.00 1.45 1.37 88 1007.6
20260506162416 9 357 1.6 4.8 0.00 1.45 1.37 88 1007.5
20260506161916 9 357 1.6 4.8 0.00 1.45 1.37 88 1007.6
20260506161624 9 357 1.6 4.8 0.00 1.45 1.37 89 1007.6
20260506161416 9 357 3.2 8.0 0.00 1.45 1.37 89 1007.6
20260506160916 9 355 3.2 8.0 0.00 1.45 1.37 89 1007.5
20260506160624 9 353 3.2 8.0 0.00 1.45 1.37 89 1007.6
20260506160416 9 350 3.2 12.9 0.00 1.45 1.37 89 1007.6
20260506155916 9 3 3.2 12.9 0.00 1.45 1.37 89 1007.5
20260506155624 9 337 3.2 12.9 0.00 1.45 1.37 89 1007.5
20260506154916 9 31 3.2 9.7 0.00 1.45 1.37 88 1007.4
20260506154624 9 22 3.2 9.7 0.00 1.45 1.37 89 1007.5
20260506154417 9 33 3.2 9.7 0.00 1.45 1.37 89 1007.5
20260506153624 9 43 4.8 11.3 0.00 1.45 1.37 89 1007.5
20260506152916 9 348 3.2 9.7 0.00 1.45 1.37 89 1007.5
20260506152624 9 350 3.2 9.7 0.00 1.45 1.37 89 1007.5
20260506152416 9 6 3.2 9.7 0.00 1.45 1.37 89 1007.4
20260506151917 9 14 3.2 9.7 0.00 1.45 1.37 89 1007.4
20260506151624 9 17 1.6 9.7 0.00 1.45 1.37 89 1007.4
20260506151416 9 22 1.6 9.7 0.00 1.45 1.37 89 1007.4
20260506150917 9 28 3.2 11.3 0.00 1.45 1.37 89 1007.3
20260506150624 9 26 3.2 11.3 0.00 1.45 1.37 89 1007.4
20260506150416 9 22 3.2 11.3 0.00 1.45 1.37 89 1007.3
20260506145917 9 15 3.2 9.7 0.00 1.45 1.37 89 1007.4
20260506145624 9 12 1.6 6.4 0.00 1.45 1.37 89 1007.4
20260506144916 9 7 1.6 4.8 0.00 1.45 1.37 89 1007.3
20260506144624 9 12 1.6 4.8 0.00 1.45 1.37 88 1007.4
20260506144417 9 356 3.2 8.0 0.00 1.45 1.37 88 1007.4
20260506143917 10 356 3.2 8.0 0.00 1.45 1.37 88 1007.4
20260506143624 10 358 3.2 8.0 0.00 1.45 1.37 89 1007.3
20260506143416 10 340 3.2 12.9 0.00 1.45 1.37 89 1007.3
20260506142916 10 337 4.8 12.9 0.00 1.45 1.37 89 1007.3
20260506142624 10 344 3.2 9.7 0.03 1.45 1.37 89 1007.2
20260506141917 10 343 3.2 9.7 0.03 1.45 1.37 89 1007.1
20260506141625 10 330 3.2 6.4 0.03 1.45 1.37 89 1007.2
20260506141416 10 329 3.2 6.4 0.03 1.45 1.37 89 1007.1
20260506140917 10 352 3.2 12.9 0.03 1.45 1.37 89 1007.1
20260506140624 10 330 4.8 11.3 0.05 1.45 1.37 89 1007.1
20260506140416 10 27 4.8 12.9 0.05 1.45 1.37 89 1007.1
20260506135917 10 26 4.8 14.5 0.05 1.45 1.37 89 1007.0
20260506135624 10 35 3.2 12.9 0.05 1.45 1.37 90 1007.0
20260506135417 10 356 4.8 14.5 0.05 1.45 1.37 90 1007.0
20260506134917 10 351 4.8 14.5 0.05 1.45 1.37 90 1007.0
20260506134624 10 280 4.8 12.9 0.05 1.45 1.37 91 1007.0
20260506134416 10 355 4.8 12.9 0.05 1.45 1.37 91 1007.0
20260506133917 9 3 4.8 9.7 0.05 1.45 1.37 91 1007.0
20260506133626 9 2 4.8 9.7 0.05 1.45 1.37 90 1007.0
20260506133417 9 4 4.8 12.9 0.05 1.45 1.37 90 1007.0
20260506132917 9 9 3.2 12.9 0.05 1.45 1.37 89 1007.1
20260506132624 9 355 4.8 11.3 0.05 1.42 1.35 89 1007.0
20260506132417 9 9 3.2 11.3 0.05 1.42 1.35 89 1007.0
20260506131916 9 2 3.2 9.7 0.05 1.42 1.35 89 1007.0
20260506131625 9 2 3.2 8.0 0.05 1.42 1.35 89 1007.0
20260506131417 9 4 4.8 14.5 0.05 1.42 1.35 89 1007.0
20260506130625 9 17 3.2 8.0 0.05 1.40 1.32 89 1006.9
20260506125917 9 11 3.2 9.7 0.05 1.40 1.32 89 1006.9
20260506125624 9 12 4.8 9.7 0.03 1.37 1.30 89 1006.9
20260506124624 9 12 3.2 6.4 0.05 1.37 1.30 89 1006.8
20260506123624 9 3 3.2 6.4 0.05 1.37 1.30 89 1006.7
20260506123417 9 1 3.2 9.7 0.05 1.37 1.30 89 1006.7
20260506122624 9 36 3.2 9.7 0.05 1.37 1.30 89 1006.6
20260506122416 9 50 4.8 11.3 0.05 1.37 1.30 89 1006.6
20260506121917 9 43 4.8 11.3 0.05 1.37 1.30 89 1006.6
20260506121624 9 31 3.2 8.0 0.03 1.37 1.27 90 1006.5
20260506120917 9 6 3.2 12.9 0.03 1.37 1.27 89 1006.5
20260506120625 9 3 3.2 6.4 0.03 1.37 1.27 89 1006.5
20260506120417 9 14 3.2 9.7 0.03 1.37 1.27 89 1006.5
20260506115917 9 32 3.2 9.7 0.05 1.37 1.27 89 1006.5
20260506115624 9 37 3.2 8.0 0.05 1.37 1.27 89 1006.4
20260506115417 9 9 3.2 8.0 0.05 1.37 1.27 89 1006.4
20260506114917 9 338 3.2 14.5 0.03 1.35 1.27 90 1006.4
20260506114624 9 322 3.2 14.5 0.03 1.35 1.27 89 1006.4
20260506114417 9 354 1.6 14.5 0.03 1.35 1.27 89 1006.4
20260506113917 9 11 3.2 14.5 0.03 1.35 1.27 89 1006.4
20260506113624 9 4 4.8 14.5 0.05 1.35 1.27 89 1006.3
20260506113417 9 9 4.8 14.5 0.05 1.35 1.27 89 1006.3
20260506112917 9 15 3.2 12.9 0.05 1.35 1.27 89 1006.3
20260506112417 9 39 4.8 12.9 0.05 1.35 1.27 89 1006.4
20260506111917 9 42 3.2 9.7 0.05 1.35 1.27 89 1006.4
20260506111624 9 50 3.2 9.7 0.05 1.35 1.27 90 1006.4
20260506111417 9 29 3.2 9.7 0.05 1.35 1.27 90 1006.4
20260506110917 9 18 6.4 19.3 0.05 1.35 1.27 89 1006.4
20260506110624 9 44 6.4 19.3 0.08 1.35 1.27 89 1006.4
20260506110416 9 7 6.4 19.3 0.08 1.35 1.27 89 1006.4
20260506105917 9 12 6.4 25.7 0.05 1.32 1.24 89 1006.4
20260506105624 9 344 6.4 25.7 0.05 1.32 1.24 89 1006.3
20260506105417 9 23 6.4 25.7 0.05 1.32 1.24 89 1006.3
20260506104916 9 31 4.8 12.9 0.08 1.32 1.24 89 1006.4
20260506104624 9 12 6.4 11.3 0.08 1.32 1.24 89 1006.3
20260506103917 9 27 3.2 11.3 0.08 1.32 1.24 90 1006.3
20260506103624 9 26 3.2 11.3 0.08 1.30 1.22 89 1006.3
20260506103417 9 15 4.8 14.5 0.08 1.32 1.22 89 1006.3
20260506102917 9 10 6.4 14.5 0.08 1.32 1.22 89 1006.4
20260506102417 8 13 4.8 16.1 0.08 1.32 1.22 89 1006.2
20260506101917 9 11 4.8 16.1 0.08 1.30 1.19 89 1006.2
20260506101624 9 323 4.8 12.9 0.10 1.27 1.19 89 1006.0
20260506101417 9 358 6.4 12.9 0.08 1.30 1.19 88 1006.1
20260506100917 9 353 4.8 17.7 0.10 1.30 1.19 89 1005.9
20260506100625 9 31 4.8 17.7 0.08 1.27 1.17 89 1006.0
20260506100418 9 3 6.4 17.7 0.08 1.30 1.17 89 1005.9
20260506095917 10 3 8.0 19.3 0.08 1.30 1.17 90 1005.9
20260506095417 9 6 6.4 19.3 0.08 1.32 1.17 90 1005.7
20260506094917 9 19 4.8 14.5 0.05 1.30 1.17 90 1005.7
20260506094624 9 1 4.8 12.9 0.08 1.30 1.17 90 1005.7
20260506094417 9 28 4.8 12.9 0.08 1.30 1.17 90 1005.7
20260506093917 9 18 6.4 12.9 0.08 1.30 1.17 91 1005.7
20260506093624 9 40 6.4 12.9 0.05 1.27 1.14 90 1005.7
20260506093417 9 26 4.8 12.9 0.05 1.27 1.14 90 1005.7
20260506092917 9 59 3.2 12.9 0.05 1.27 1.14 90 1005.6
20260506092624 9 68 3.2 6.4 0.05 1.27 1.14 90 1005.6
20260506092417 9 64 4.8 11.3 0.05 1.27 1.14 90 1005.5
20260506091917 9 40 6.4 14.5 0.05 1.27 1.12 90 1005.3
20260506091624 9 352 4.8 14.5 0.05 1.27 1.12 90 1005.3
20260506091416 9 12 4.8 14.5 0.05 1.27 1.12 90 1005.3
20260506090917 9 22 6.4 16.1 0.05 1.24 1.09 90 1005.3
20260506090624 10 35 6.4 16.1 0.05 1.24 1.09 90 1005.4
20260506090417 10 17 4.8 16.1 0.05 1.24 1.09 90 1005.3
20260506085917 10 350 3.2 9.7 0.05 1.24 1.09 91 1005.3
20260506085624 10 352 3.2 9.7 0.05 1.24 1.09 91 1005.3
20260506085416 10 353 4.8 14.5 0.05 1.24 1.09 91 1005.3
20260506084917 10 356 4.8 14.5 0.05 1.22 1.09 91 1005.2
20260506084625 10 353 3.2 9.7 0.05 1.22 1.09 91 1005.3
20260506084417 10 350 4.8 12.9 0.05 1.22 1.09 91 1005.2
20260506083917 10 355 4.8 12.9 0.05 1.22 1.09 91 1005.2
20260506083624 10 2 3.2 8.0 0.05 1.22 1.09 92 1005.2
20260506082916 10 353 4.8 12.9 0.05 1.22 1.09 92 1005.1
20260506082624 10 344 6.4 12.9 0.05 1.22 1.09 92 1005.1
20260506081917 9 4 3.2 14.5 0.05 1.19 1.07 91 1005.0
20260506081624 9 355 4.8 14.5 0.05 1.19 1.07 91 1005.1
20260506081417 9 19 4.8 14.5 0.05 1.19 1.07 91 1005.1
20260506080916 9 18 4.8 9.7 0.05 1.19 1.07 92 1005.1
20260506080625 9 12 4.8 9.7 0.05 1.19 1.07 92 1005.1
20260506080417 9 6 4.8 12.9 0.05 1.19 1.07 92 1005.0
20260506073417 9 359 3.2 9.7 0.13 1.19 1.04 92 1004.9
20260506072916 9 358 4.8 8.0 0.15 1.19 1.04 92 1005.0
20260506072624 9 355 3.2 8.0 0.18 1.17 1.04 92 1005.0
20260506072417 9 16 3.2 12.9 0.18 1.19 1.04 92 1005.0
20260506071916 9 19 3.2 12.9 0.15 1.17 1.02 92 1005.0
20260506071625 9 53 3.2 9.7 0.18 1.17 1.02 92 1004.9
20260506071417 9 353 3.2 9.7 0.18 1.17 1.02 92 1004.9
20260506070917 9 351 3.2 8.0 0.20 1.17 1.02 92 1005.1
20260506070625 9 355 3.2 8.0 0.18 1.14 0.99 92 1005.1
20260506070416 9 355 3.2 8.0 0.18 1.17 0.99 92 1005.0
20260506062417 8 54 4.8 12.9 0.08 1.02 0.86 92 1004.9
20260506061917 8 34 4.8 12.9 0.10 1.02 0.86 92 1004.9
20260506061624 8 39 4.8 9.7 0.05 0.99 0.81 92 1004.8
20260506061417 8 24 4.8 9.7 0.08 0.99 0.84 92 1004.9
20260506060625 8 342 4.8 12.9 0.08 0.99 0.81 92 1004.7
20260506060417 8 9 4.8 12.9 0.05 0.99 0.81 92 1004.7
20260506050917 9 5 3.2 9.7 0.08 0.91 0.76 92 1004.6
20260506050625 9 29 3.2 6.4 0.05 0.89 0.74 92 1004.6
20260506050417 9 12 3.2 12.9 0.05 0.89 0.74 92 1004.6
20260506044625 9 12 4.8 12.9 0.08 0.89 0.71 92 1004.6
20260506044417 9 15 4.8 12.9 0.08 0.89 0.71 92 1004.6
20260506043917 9 25 4.8 12.9 0.10 0.89 0.71 92 1004.6
20260506043625 9 62 4.8 12.9 0.13 0.89 0.71 92 1004.6
20260506043417 9 27 4.8 12.9 0.13 0.89 0.71 92 1004.6
20260506042917 9 18 4.8 12.9 0.13 0.89 0.71 92 1004.6
20260506042624 9 26 4.8 12.9 0.13 0.86 0.71 92 1004.6
20260506042417 9 25 4.8 12.9 0.13 0.86 0.71 92 1004.6
20260506041917 9 25 3.2 9.7 0.15 0.86 0.71 92 1004.6
20260506041624 9 55 3.2 9.7 0.15 0.86 0.71 92 1004.6
20260506041417 9 3 3.2 12.9 0.15 0.86 0.71 92 1004.6
20260506040917 9 16 3.2 12.9 0.15 0.84 0.69 92 1004.6
20260506040625 9 5 3.2 8.0 0.15 0.84 0.69 92 1004.7
20260506040417 9 38 3.2 8.0 0.15 0.84 0.69 92 1004.7
20260506035917 9 21 3.2 9.7 0.15 0.84 0.66 92 1004.7
20260506035624 9 4 3.2 8.0 0.15 0.84 0.66 92 1004.6
20260506035417 9 359 3.2 9.7 0.15 0.84 0.66 92 1004.6
20260506034917 9 357 4.8 8.0 0.15 0.81 0.64 92 1004.7
20260506034624 8 355 4.8 8.0 0.15 0.81 0.64 92 1004.6
20260506034418 8 354 4.8 9.7 0.15 0.81 0.64 92 1004.6
20260506033917 8 351 3.2 9.7 0.15 0.79 0.61 92 1004.8
20260506033625 8 348 3.2 6.4 0.15 0.79 0.61 92 1004.7
20260506032624 8 359 3.2 8.0 0.15 0.76 0.58 92 1004.7
20260506032416 8 358 3.2 12.9 0.15 0.76 0.58 92 1004.7
20260506031625 8 344 3.2 12.9 0.15 0.74 0.56 92 1004.8
20260506031417 8 356 4.8 14.5 0.15 0.74 0.56 92 1004.8
20260506030917 8 1 3.2 14.5 0.15 0.71 0.53 92 1004.8
20260506030418 8 349 3.2 6.4 0.15 0.71 0.53 92 1004.8
20260506025918 8 358 3.2 12.9 0.15 0.71 0.51 92 1004.9
20260506025625 8 349 4.8 12.9 0.15 0.69 0.51 92 1004.9
20260506025417 8 7 3.2 12.9 0.15 0.69 0.51 92 1004.9
20260506024917 8 3 3.2 8.0 0.15 0.69 0.51 92 1005.0
20260506024624 8 12 3.2 8.0 0.18 0.66 0.48 92 1005.1
20260506024417 8 3 3.2 12.9 0.15 0.69 0.48 92 1005.0
20260506023917 8 9 4.8 12.9 0.20 0.69 0.48 92 1005.0
20260506023625 8 22 4.8 9.7 0.20 0.64 0.46 92 1005.1
20260506023419 8 8 4.8 12.9 0.20 0.69 0.46 92 1005.1
20260506022917 8 350 4.8 12.9 0.20 0.66 0.43 91 1005.0
20260506022626 8 348 4.8 11.3 0.23 0.61 0.43 91 1005.1
20260506022417 8 343 4.8 12.9 0.20 0.66 0.43 91 1005.1
20260506021917 8 7 3.2 12.9 0.20 0.66 0.43 91 1005.1
20260506021625 8 12 3.2 11.3 0.18 0.56 0.38 91 1005.2
20260506020917 8 9 3.2 11.3 0.18 0.61 0.38 91 1005.2
20260506020625 8 22 3.2 8.0 0.20 0.56 0.38 91 1005.2
20260506020417 8 2 3.2 12.9 0.20 0.61 0.38 91 1005.2
20260506015625 8 7 3.2 6.4 0.18 0.58 0.33 91 1005.3
20260506014917 8 11 4.8 12.9 0.18 0.56 0.33 91 1005.2
20260506014625 8 358 3.2 9.7 0.15 0.53 0.30 91 1005.2
20260506014417 8 7 3.2 9.7 0.15 0.53 0.30 91 1005.2
20260506013917 9 356 3.2 8.0 0.15 0.53 0.28 91 1005.3
20260506013417 9 14 3.2 8.0 0.15 0.53 0.25 91 1005.3
20260506012625 9 49 3.2 8.0 0.13 0.46 0.23 91 1005.4
20260506011917 9 8 3.2 14.5 0.13 0.51 0.23 91 1005.4
20260506011625 9 353 4.8 14.5 0.10 0.43 0.20 91 1005.5
20260506011417 9 17 4.8 14.5 0.10 0.51 0.20 91 1005.4
20260506010917 9 22 3.2 8.0 0.10 0.51 0.20 91 1005.4
20260506010417 9 12 4.8 9.7 0.10 0.48 0.18 91 1005.4
20260506005917 9 9 4.8 14.5 0.10 0.51 0.18 91 1005.5
20260506005417 9 4 4.8 14.5 0.10 0.48 0.15 91 1005.5
20260506004919 9 352 4.8 19.3 0.08 0.46 0.15 91 1005.5
20260506004625 9 356 4.8 19.3 0.08 0.46 0.15 91 1005.6
20260506004417 9 12 4.8 19.3 0.08 0.46 0.15 91 1005.6
20260506003917 9 19 4.8 14.5 0.05 0.43 0.13 90 1005.5
20260506003626 9 67 4.8 14.5 0.05 0.43 0.13 91 1005.6
20260506003417 9 19 4.8 14.5 0.05 0.43 0.13 91 1005.6